This is the latest recevied weather packets stored in our database for station/object N5SOR-1. If no packets are shown the sender has not sent any weather packets the latest 10 day(s).
| Time | Temp. | Humidity | Pressure | Rain* | Wind** | Luminosity | Snow |
|---|---|---|---|---|---|---|---|
| 1777647215 | 12.22° C | 88% | 1014.7 hPa | 20.83 mm | - | 14 W/m² | - |
| 1777646554 | 12.22° C | 88% | 1014.5 hPa | 10.67 mm | - | 11 W/m² | - |
| 1777645893 | 12.78° C | 88% | 1014.6 hPa | 4.06 mm | - | 0 W/m² | - |
| 1777645233 | 12.78° C | 88% | 1013.8 hPa | 2.29 mm | - | 12 W/m² | - |
| 1777644573 | 12.78° C | 87% | 1013.1 hPa | 0.51 mm | - | 5 W/m² | - |
| 1777643912 | 12.78° C | 87% | 1012 hPa | 0.25 mm | - | 12 W/m² | - |
| 1777643251 | 12.78° C | 87% | 1012 hPa | 0 mm | - | 25 W/m² | - |
| 1777642590 | 12.78° C | 87% | 1012 hPa | 1.27 mm | - | 28 W/m² | - |
| 1777641929 | 12.78° C | 87% | 1012.1 hPa | 1.78 mm | - | 12 W/m² | - |
| 1777641269 | 12.78° C | 87% | 1012 hPa | 1.78 mm | - | 14 W/m² | - |
| 1777640608 | 12.78° C | 87% | 1011.8 hPa | 1.78 mm | - | 25 W/m² | - |
| 1777639948 | 12.78° C | 87% | 1010.6 hPa | 1.78 mm | - | 21 W/m² | - |
| 1777639287 | 12.78° C | 87% | 1010.7 hPa | 1.02 mm | - | 7 W/m² | - |
| 1777638626 | 12.78° C | 86% | 1012.6 hPa | 0.25 mm | - | 0 W/m² | - |
| 1777637966 | 12.78° C | 86% | 1011.8 hPa | 0 mm | - | 0 W/m² | - |
| 1777637305 | 13.33° C | 86% | 1011.1 hPa | 0 mm | - | 0 W/m² | - |
| 1777636645 | 13.33° C | 86% | 1011.4 hPa | 0 mm | - | 0 W/m² | - |
| 1777635984 | 13.33° C | 85% | 1011 hPa | 0 mm | - | 0 W/m² | - |
| 1777635323 | 13.33° C | 85% | 1011.1 hPa | 0 mm | - | 0 W/m² | - |
| 1777634663 | 13.89° C | 84% | 1012 hPa | 0 mm | - | 0 W/m² | - |
| 1777634002 | 13.89° C | 84% | 1011.3 hPa | 0 mm | - | 0 W/m² | - |
| 1777633342 | 13.89° C | 84% | 1011.2 hPa | 0 mm | - | 0 W/m² | - |
| 1777632681 | 13.89° C | 84% | 1011.1 hPa | 0 mm | - | 0 W/m² | - |
| 1777632022 | 13.89° C | 83% | 1011.2 hPa | 0 mm | - | 0 W/m² | - |
| 1777631360 | 14.44° C | 82% | 1011.3 hPa | 0 mm | - | 0 W/m² | - |
* Rain latest hour (hover to see other rain measurements)
** Current wind speed in m/s (hover to see current wind gust speed)